Location: Ertinghausen
(51.6624°N, 9.7874°E)
Time: 13:11:32
(UTC+00:00)

SL-16 R/B - Pass Details

Date: 23 May 2024
Orbit: 985 x 1006 km, 99.7° (Epoch: 13 June)

Event Time Altitude Azimuth Distance (km) Brightness Sun altitude
Rises 01:48:19 0° 163° (SSE) 3,722 5.2 -10.5°
Reaches altitude 10° 01:50:47 10° 164° (SSE) 2,777 4.5 -10.3°
Maximum altitude 01:57:04 83° 253° (WSW) 1,021 2.6 -9.7°
Drops below altitude 10° 02:03:23 10° 342° (NNW) 2,794 5.4 -9.1°
Sets 02:05:52 0° 343° (NNW) 3,747 6.1 -8.9°
